カタログに戻る

CZ-4C R/B

運用中LEO
NORAD 43278·ROCKET BODY·🇨🇳 China

打ち上げ Apr 10, 2018 から Jiuquan Satellite Launch Center

Loading…

次のパス (今後24時間)

TLE

最新Source: Space-Track

元期: Sep 14, 2026, 14:33 UTC

1 43278U 18034D   26257.60642715 -.00000063  00000-0  24503-4 0  9991
2 43278  63.4313  12.0908 0391689 358.2373   1.7256 13.60960290419015

AllMySatでCZ-4C R/Bをリアルタイム追跡

Download on the App Store